Flag for United Kingdom Weather past 2 weeks in Glasgow, Scotland, United Kingdom

Now
52 °F

Light rain. Broken clouds.


Feels Like: 47 °F
Forecast: 48 / 57 °F
Wind: 16 mph from Southwest

Location: Glasgow Airport

Current Time: Oct 22, 2014 at 4:05:36 PM

Latest Report: Oct 22, 2014 at 3:20 PM


Visibility: N/A

Pressure: 30.01 "Hg

Humidity: 94%

Dew point: 50 °F

Location of GlasgowLocation

Historic Weather in Glasgow — Graph

°F

Glasgow temperature yesterday

Maximum temperature yesterday: 55 °F (at 12:20 AM)
Minimum temperature yesterday: 43 °F (at 7:20 PM)
Average temperature yesterday: 48 °F

Past Weeks' High & Low Weather Summary

 TemperatureHumidityPressure
High64 °F (Oct 18, 12:20 PM)100% (Oct 8, 1:20 AM)30.09 "Hg (Oct 8, 1:20 AM)
Low34 °F (Oct 8, 5:50 AM)51% (Oct 15, 2:50 PM)29.03 "Hg (Oct 21, 4:20 AM)
Average50 °F86%29.62 "Hg
* Reported Oct 7 2:20 PM — Oct 22 2:50 PM, Glasgow, Weather by CustomWeather, © 2014

Note: Actual official high and low records may vary slightly from our data, if they occured in-between our weather recording intervals... More about our weather records

Advertising

Glasgow weather history for previous 24 hours

 ConditionsComfort  
Time TempWeatherWind HumidityBarometerVisibility
2:50 PM
Oct 22
52 °FLight rain. Partly sunny.16 mph94%30.01 "HgN/A
2:20 PM52 °FLight rain. Low clouds.13 mph94%30.01 "Hg4 mi
1:50 PM52 °FOvercast.14 mph94%30.01 "HgN/A
1:20 PM52 °FLow clouds.18 mph94%30.04 "HgN/A
12:50 PM52 °FLow clouds.18 mph94%30.04 "HgN/A
12:20 PM52 °FLow clouds.17 mph88%30.04 "HgN/A
11:50 AM52 °FMostly cloudy.18 mph94%30.04 "HgN/A
11:20 AM52 °FPartly sunny.17 mph94%30.07 "Hg5 mi
10:50 AM52 °FPartly sunny.16 mph94%30.07 "HgN/A
10:20 AM50 °FLight rain. Partly sunny.13 mph100%30.07 "HgN/A
9:50 AM50 °FDrizzle. Partly sunny.10 mph100%30.07 "Hg2 mi
9:20 AM50 °FLight rain. Partly sunny.12 mph94%30.07 "Hg4 mi
8:50 AM50 °FPartly cloudy.8 mph94%30.09 "Hg4 mi
8:20 AM50 °FLight rain. Mostly cloudy.10 mph94%30.09 "Hg4 mi
7:50 AM50 °FPassing clouds.10 mph88%30.09 "HgN/A
7:20 AM50 °FOvercast.10 mph82%30.09 "HgN/A
6:50 AM48 °FOvercast.7 mph87%30.07 "HgN/A
6:20 AM48 °FPassing clouds.6 mph82%30.09 "HgN/A
5:50 AM46 °FPassing clouds.7 mph87%30.07 "HgN/A
5:20 AM48 °FOvercast.12 mph82%30.07 "HgN/A
4:50 AM48 °FPassing clouds.10 mph82%30.07 "HgN/A
4:20 AM46 °FCool.6 mph82%30.07 "HgN/A
3:50 AM48 °FPassing clouds.10 mph82%30.04 "HgN/A
3:20 AM48 °FLight rain. Overcast.9 mph82%30.07 "Hg4 mi
2:50 AM48 °FPassing clouds.9 mph76%30.07 "HgN/A
2:20 AM48 °FPassing clouds.8 mph76%30.04 "HgN/A
1:50 AM48 °FPassing clouds.10 mph71%30.01 "HgN/A
1:20 AM48 °FPassing clouds.12 mph76%30.01 "HgN/A
12:50 AM48 °FPassing clouds.15 mph76%30.01 "HgN/A
12:20 AM46 °FPassing clouds.17 mph82%30.01 "HgN/A
11:50 PM
Oct 21
46 °FLight rain. Passing clouds.12 mph82%30.01 "HgN/A
11:20 PM46 °FPassing clouds.14 mph76%29.98 "HgN/A
10:50 PM46 °FLight rain. Passing clouds.12 mph76%29.98 "HgN/A
10:20 PM45 °FPassing clouds.9 mph81%29.98 "HgN/A
9:50 PM45 °FPassing clouds.9 mph81%29.95 "HgN/A
9:20 PM46 °FPassing clouds.14 mph71%29.92 "HgN/A
8:50 PM45 °FPassing clouds.5 mph71%29.92 "HgN/A
8:20 PM45 °FPassing clouds.9 mph66%29.89 "HgN/A
7:50 PM43 °FQuite cool.6 mph76%29.89 "HgN/A
7:20 PM43 °FPassing clouds.8 mph81%29.89 "HgN/A
6:50 PM45 °FLight rain. Partly sunny.16 mph76%29.86 "Hg3 mi
6:20 PM46 °FPartly sunny.12 mph66%29.83 "HgN/A
5:50 PM46 °FPartly sunny.20 mph66%29.83 "HgN/A
5:20 PM46 °FPartly sunny.16 mph66%29.80 "HgN/A
4:50 PM45 °FScattered clouds.15 mph76%29.77 "HgN/A
4:20 PM46 °FLight rain. Partly sunny.21 mph71%29.74 "Hg6 mi
Weather by CustomWeather, © 2014

See weather overviewHow to use our weather pages